Regional Weather Roundup
Issued by NWS Goodland, KS

Home | Current Version | Previous Version | Graphics & Text | Print | Product List | Glossary On
Versions: 1 2 3 4 5 6 7 8 9 10 11 12 13 14 15 16 17 18 19 20 21 22 23 24 25 26 27 28 29 30 31 32 33 34 35 36 37 38 39 40 41 42 43 44 45 46 47 48 49 50
000
ASUS43 KGLD 010008
RWRGLD

GOODLAND FORECAST AREA HOURLY WEATHER ROUNDUP
NATIONAL WEATHER SERVICE GOODLAND KS
600 PM MDT SUN AUG 31 2014

...OFFICIAL OBSERVATIONS...

CITY           SKY/WX    TMP DP  RH WIND       PRES   REMARKS
GOODLAND KS    CLOUDY    75  55  49 NE9       29.83S
HILL CITY KS   SUNNY     80  58  46 N26G36    29.68F
IMPERIAL NEB   PTSUNNY   75  53  46 CALM      29.80F
MCCOOK NEB     TSTM      71  59  65 NE6       29.78S
AKRON CO       PTSUNNY   72  46  39 NW8       29.91R
BURLINGTON CO  PTSUNNY   75  49  39 E13       29.85F
LIMON CO       PTSUNNY   73  48  41 E17       29.92R
$$

...UNOFFICIAL OBSERVATIONS...

CITY           SKY/WX    TMP DP  RH WIND       PRES   REMARKS
COLBY KS       SUNNY     75  57  53 NE13      29.79F
GOVE KS          N/A     79  32  18 CALM        N/A
NORTON KS      SUNNY     75  48  38 N12       29.73
SHARON SPRINGS   N/A     75  58  54 NE18        N/A
WAKEENEY KS      N/A     78  54  42 MISG        N/A
KIT CARSON CO    N/A     75  50  41 N7G18       N/A
YUMA CO          N/A     72  49  43 CALM        N/A
$$



USA.gov is the U.S. government's official web portal to all federal, state and local government web resources and services.